Change the Weather History Date:

Thursday, October 13, 2011

  Actual Average Record
Temperature  
Mean Temperature 56 °F -  
Max Temperature 62 °F 55 °F 66 °F (2003)
Min Temperature 51 °F 43 °F 33 °F (2005)
Degree Days  
Heating Degree Days 8    
Growing Degree Days 6 (Base 50)    
Moisture  
Dew Point 54 °F    
Average Humidity 88    
Maximum Humidity 100    
Minimum Humidity 72    
Precipitation  
Precipitation 0.01 in 0.12 in - ()
Sea Level Pressure  
Sea Level Pressure 30.29 in    
Wind  
Wind Speed 6 mph ()    
Max Wind Speed 13 mph    
Max Gust Speed -    
Visibility 6.2 miles    
Events Rain    
Averages and records for this station are not official NWS values.
T = Trace of Precipitation, MM = Missing Value Source: Averaged Metar Reports

Daily Weather History Graph

Daily Weather History Graph

Search for Another Location

Airport or City:

Trip Planner

Search our weather history database for the weather conditions in past years. The results will help you decide how hot, cold, wet, or windy it might be!

Date:

Astronomy

Oct. 13, 2011 Rise Set
Actual Time 7:57 AM IST 6:45 PM IST
Civil Twilight 7:22 AM IST 7:20 PM IST
Nautical Twilight 6:42 AM IST 7:59 PM IST
Astronomical Twilight 6:02 AM IST 8:39 PM IST
Moon 6:51 PM IST (10/13) 9:36 AM IST (10/13)
Length of Visible Light 11h 57m
Length of Day
10h 48m
Full, 98% of the Moon is Illuminated
Oct 13
Full
Oct 20
Last Quarter
Oct 26
New
Nov 2
First Quarter
Nov 10
Full

Hourly Weather History & Observations

Time (IST) Temp. Dew Point Humidity Pressure Visibility Wind Dir Wind Speed Gust Speed Precip Events Conditions
12:00 AM 55.4 °F 50.0 °F 82% 30.27 in 6.2 mi Calm Calm - N/A   Mostly Cloudy
12:30 AM 55.4 °F 50.0 °F 82% 30.27 in 6.2 mi West 3.5 mph - N/A   Mostly Cloudy
1:00 AM 55.4 °F 50.0 °F 82% 30.27 in 6.2 mi SW 3.5 mph - N/A   Mostly Cloudy
1:30 AM 55.4 °F 50.0 °F 82% 30.27 in 6.2 mi Variable 1.2 mph - N/A   Mostly Cloudy
2:00 AM 53.6 °F 50.0 °F 88% 30.27 in 6.2 mi SE 3.5 mph - N/A   Mostly Cloudy
2:30 AM 53.6 °F 50.0 °F 88% 30.27 in 6.2 mi South 3.5 mph - N/A   Light Drizzle
3:00 AM 53.6 °F 50.0 °F 88% 30.30 in 6.2 mi South 5.8 mph - N/A   Mostly Cloudy
3:30 AM 53.6 °F 50.0 °F 88% 30.30 in 6.2 mi South 4.6 mph - N/A   Mostly Cloudy
4:00 AM 53.6 °F 50.0 °F 88% 30.27 in 6.2 mi SE 4.6 mph - N/A   Overcast
4:30 AM 53.6 °F 50.0 °F 88% 30.27 in 6.2 mi South 3.5 mph - N/A   Overcast
5:00 AM 53.6 °F 50.0 °F 88% 30.27 in 6.2 mi South 3.5 mph - N/A   Light Drizzle
5:30 AM 53.6 °F 51.8 °F 94% 30.27 in 6.2 mi SE 4.6 mph - N/A   Light Drizzle
6:00 AM 53.6 °F 51.8 °F 94% 30.27 in 5.0 mi SSE 5.8 mph - N/A   Light Drizzle
6:30 AM 53.6 °F 51.8 °F 94% 30.27 in 6.2 mi SE 6.9 mph - N/A   Light Drizzle
7:00 AM 53 °F 51 °F 90% 30.30 in 6 mi SSE 6.7 mph - - Rain Light Drizzle
7:00 AM 51.8 °F 51.8 °F 100% 30.27 in 6.2 mi SSE 6.9 mph - N/A   Light Drizzle
7:30 AM 51.8 °F 51.8 °F 100% 30.27 in 6.2 mi SE 8.1 mph - N/A   Overcast
8:00 AM 51.8 °F 50.0 °F 94% 30.30 in 5.6 mi SSE 12.7 mph - N/A   Light Drizzle
8:30 AM 51.8 °F 50.0 °F 94% 30.30 in 4.3 mi SE 8.1 mph - N/A   Light Drizzle
9:00 AM 51.8 °F 51.8 °F 100% 30.30 in 6.2 mi SE 6.9 mph - N/A   Mostly Cloudy
9:30 AM 53.6 °F 51.8 °F 94% 30.30 in 6.2 mi SE 8.1 mph - N/A   Mostly Cloudy
10:00 AM 53.6 °F 51.8 °F 94% 30.30 in 6.2 mi SE 9.2 mph - N/A   Mostly Cloudy
10:30 AM 55.4 °F 51.8 °F 88% 30.30 in 6.2 mi SE 10.4 mph - N/A   Mostly Cloudy
11:00 AM 55.4 °F 51.8 °F 88% 30.30 in 6.2 mi SE 10.4 mph - N/A   Mostly Cloudy
11:30 AM 57.2 °F 53.6 °F 88% 30.30 in 6.2 mi SE 9.2 mph - N/A   Mostly Cloudy
12:00 PM 59.0 °F 53.6 °F 82% 30.30 in 6.2 mi SE 10.4 mph - N/A   Mostly Cloudy
12:30 PM 60.8 °F 53.6 °F 77% 30.30 in 6.2 mi SSE 11.5 mph - N/A   Mostly Cloudy
1:00 PM 61 °F 55 °F 73% 30.31 in 31 mi SSE 11.2 mph - -   Partly Cloudy
1:00 PM 60.8 °F 55.4 °F 82% 30.30 in 6.2 mi SSE 10.4 mph - N/A   Scattered Clouds
1:30 PM 62.6 °F 53.6 °F 72% 30.30 in 6.2 mi SE 6.9 mph - N/A   Mostly Cloudy
2:00 PM 60.8 °F 55.4 °F 82% 30.30 in 6.2 mi SE 9.2 mph - N/A   Mostly Cloudy
2:30 PM 62.6 °F 55.4 °F 77% 30.30 in 6.2 mi SE 9.2 mph - N/A   Mostly Cloudy
3:00 PM 62.6 °F 55.4 °F 77% 30.30 in 6.2 mi SE 9.2 mph - N/A   Mostly Cloudy
3:30 PM 60.8 °F 55.4 °F 82% 30.27 in 6.2 mi SSE 10.4 mph - N/A   Mostly Cloudy
4:00 PM 60.8 °F 57.2 °F 88% 30.27 in 6.2 mi SSE 8.1 mph - N/A   Mostly Cloudy
4:30 PM 60.8 °F 57.2 °F 88% 30.27 in 6.2 mi SSE 6.9 mph - N/A   Mostly Cloudy
5:00 PM 60.8 °F 57.2 °F 88% 30.27 in 6.2 mi SSE 8.1 mph - N/A   Mostly Cloudy
5:30 PM 60.8 °F 57.2 °F 88% 30.27 in 6.2 mi SE 8.1 mph - N/A   Mostly Cloudy
6:00 PM 60.8 °F 57.2 °F 88% 30.27 in 6.2 mi SE 5.8 mph - N/A   Mostly Cloudy
6:30 PM 60.8 °F 57.2 °F 88% 30.27 in 6.2 mi ESE 6.9 mph - N/A   Mostly Cloudy
7:00 PM 61 °F 57 °F 84% 30.30 in 19 mi SE 8.9 mph - -   Partly Cloudy
7:00 PM 60.8 °F 57.2 °F 88% 30.27 in 6.2 mi SE 8.1 mph - N/A   Mostly Cloudy
7:30 PM 60.8 °F 57.2 °F 88% 30.27 in 6.2 mi SE 6.9 mph - N/A   Mostly Cloudy
8:00 PM 60.8 °F 57.2 °F 88% 30.27 in 6.2 mi SE 5.8 mph - N/A   Mostly Cloudy
8:30 PM 60.8 °F 57.2 °F 88% 30.27 in 6.2 mi SE 5.8 mph - N/A   Mostly Cloudy
9:00 PM 59.0 °F 57.2 °F 94% 30.30 in 6.2 mi ESE 6.9 mph - N/A   Mostly Cloudy
9:30 PM 59.0 °F 57.2 °F 94% 30.30 in 6.2 mi SE 11.5 mph - N/A   Mostly Cloudy
10:00 PM 59.0 °F 55.4 °F 88% 30.30 in 6.2 mi ESE 8.1 mph - N/A   Mostly Cloudy
10:30 PM 57.2 °F 55.4 °F 94% 30.30 in 1.9 mi SE 10.4 mph - N/A   Light Drizzle
11:00 PM 57.2 °F 55.4 °F 94% 30.30 in 3.7 mi ESE 9.2 mph - N/A   Mostly Cloudy
11:30 PM 57.2 °F 55.4 °F 94% 30.30 in 3.7 mi ESE 8.1 mph - N/A   Light Drizzle